Weather History for KBHM - March, 2013

Change the Weather History Date:

Saturday, March 2, 2013

  Actual Average Record
Temperature  
Mean Temperature 36 °F 52 °F  
Max Temperature 39 °F 63 °F 83 °F (1976)
Min Temperature 32 °F 41 °F 15 °F (1980)
Degree Days  
Heating Degree Days 29 14  
Month to date heating degree days 54 28  
Since 1 July heating degree days 2052 2218  
Cooling Degree Days 0 0  
Month to date cooling degree days 0 0  
Year to date cooling degree days 6 4  
Moisture  
Dew Point 27 °F    
Average Humidity 68    
Maximum Humidity 82    
Minimum Humidity 54    
Precipitation  
Precipitation T in 0.17 in 2.48 in (1960)
Month to date precipitation T 0.35  
Year to date precipitation 14.59 9.72  
Snow  
Snow T in 0.00 in - ()
Month to date snowfall T 0.0  
Since 1 July snowfall 2.1 0.8  
Snow Depth 0.00 in    
Sea Level Pressure  
Sea Level Pressure 30.12 in    
Wind  
Wind Speed 11 mph (NW)    
Max Wind Speed 18 mph    
Max Gust Speed 25 mph    
Visibility 9 miles    
Events Snow    
T = Trace of Precipitation, MM = Missing Value Source: NWS Daily Summary

Daily Weather History Graph

Daily Weather History Graph

Search for Another Location

Airport or City:

Trip Planner

Search our weather history database for the weather conditions in past years. The results will help you decide how hot, cold, wet, or windy it might be!

Date:

Astronomy

Mar. 02, 2013 Rise Set
Actual Time 6:13 AM CST 5:44 PM CST
Civil Twilight 5:48 AM CST 6:09 PM CST
Nautical Twilight 5:20 AM CST 6:38 PM CST
Astronomical Twilight 4:51 AM CST 7:07 PM CST
Moon 11:05 PM CST (3/2) 8:58 AM CST (3/2)
Length of Visible Light 12h 20m
Length of Day
11h 30m
Waning Gibbous, 74% of the Moon is Illuminated
Mar 2
Waning Gibbous
Mar 4
Last Quarter
Mar 11
New
Mar 19
First Quarter
Mar 27
Full

Hourly Weather History & Observations

Time (CST) Temp. Windchill Dew Point Humidity Pressure Visibility Wind Dir Wind Speed Gust Speed Precip Events Conditions
12:53 AM 35.1 °F 29.3 °F 28.0 °F 76% 30.10 in 7.0 mi WNW 6.9 mph - 0.00 in Snow Light Snow
1:53 AM 35.1 °F 28.6 °F 28.0 °F 76% 30.09 in 10.0 mi West 8.1 mph - 0.00 in   Overcast
2:53 AM 34.0 °F 27.2 °F 28.9 °F 82% 30.08 in 10.0 mi NW 8.1 mph - N/A   Overcast
3:26 AM 33.8 °F 27.0 °F 28.4 °F 81% 30.06 in 10.0 mi WNW 8.1 mph - N/A   Overcast
3:44 AM 33.8 °F 27.0 °F 28.4 °F 81% 30.06 in 10.0 mi WNW 8.1 mph - N/A   Overcast
3:53 AM 34.0 °F 26.6 °F 28.9 °F 82% 30.07 in 10.0 mi WNW 9.2 mph - N/A   Overcast
4:53 AM 34.0 °F 26.6 °F 28.0 °F 79% 30.07 in 10.0 mi NW 9.2 mph - N/A   Overcast
5:53 AM 33.8 °F 26.4 °F 28.4 °F 81% 30.08 in 8.0 mi NW 9.2 mph - N/A   Overcast
6:25 AM 33.8 °F 27.7 °F 28.4 °F 81% 30.08 in 6.0 mi WNW 6.9 mph - 0.00 in Snow Light Snow
6:53 AM 33.1 °F 26.9 °F 28.9 °F 85% 30.10 in 6.0 mi WNW 6.9 mph - 0.00 in Snow Light Snow
7:53 AM 34.0 °F 26.6 °F 28.9 °F 82% 30.12 in 8.0 mi WNW 9.2 mph - 0.00 in Snow Light Snow
8:53 AM 35.1 °F 28.6 °F 30.0 °F 82% 30.12 in 9.0 mi WNW 8.1 mph - 0.00 in Snow Light Snow
9:16 AM 35.6 °F 27.5 °F 30.2 °F 81% 30.12 in 8.0 mi WNW 11.5 mph 16.1 mph 0.00 in   Overcast
9:29 AM 35.6 °F 26.6 °F 30.2 °F 81% 30.12 in 10.0 mi NW 13.8 mph - 0.00 in   Overcast
9:40 AM 35.6 °F 27.1 °F 30.2 °F 81% 30.12 in 10.0 mi WNW 12.7 mph - 0.00 in   Overcast
9:53 AM 37.0 °F 29.3 °F 28.9 °F 73% 30.13 in 10.0 mi NW 11.5 mph - 0.00 in   Overcast
10:53 AM 36.0 °F 27.5 °F 28.0 °F 73% 30.13 in 8.0 mi NW 12.7 mph - 0.00 in   Overcast
11:19 AM 37.4 °F 30.3 °F 26.6 °F 65% 30.12 in 10.0 mi WNW 10.4 mph - N/A   Overcast
11:53 AM 37.0 °F 28.9 °F 26.1 °F 65% 30.13 in 10.0 mi NW 12.7 mph - N/A   Overcast
12:53 PM 36.0 °F 27.5 °F 26.1 °F 67% 30.11 in 10.0 mi NNW 12.7 mph 23.0 mph N/A   Overcast
1:53 PM 37.0 °F 27.7 °F 23.0 °F 57% 30.10 in 10.0 mi WNW 16.1 mph 21.9 mph N/A   Overcast
2:53 PM 37.9 °F 30.9 °F 23.0 °F 55% 30.10 in 10.0 mi WNW 10.4 mph 19.6 mph N/A   Overcast
3:53 PM 36.0 °F 27.1 °F 25.0 °F 64% 30.11 in 9.0 mi NW 13.8 mph 21.9 mph 0.00 in Snow Light Snow
4:53 PM 35.1 °F 27.4 °F 27.0 °F 72% 30.13 in 10.0 mi NW 10.4 mph - 0.00 in   Overcast
5:53 PM 35.1 °F 25.2 °F 26.1 °F 70% 30.14 in 10.0 mi NNW 16.1 mph 23.0 mph N/A   Overcast
6:53 PM 35.6 °F 27.5 °F 26.6 °F 70% 30.15 in 10.0 mi WNW 11.5 mph - N/A   Overcast
7:29 PM 33.8 °F 26.4 °F 26.6 °F 75% 30.16 in 9.0 mi NW 9.2 mph - 0.00 in Snow Light Snow
7:49 PM 33.8 °F 25.8 °F 26.6 °F 75% 30.16 in 10.0 mi NW 10.4 mph - 0.00 in   Overcast
7:53 PM 34.0 °F 25.0 °F 27.0 °F 75% 30.17 in 10.0 mi NW 12.7 mph - 0.00 in   Overcast
8:53 PM 34.0 °F 26.0 °F 26.1 °F 73% 30.17 in 10.0 mi NW 10.4 mph - N/A   Overcast
9:53 PM 34.0 °F 25.0 °F 25.0 °F 70% 30.17 in 10.0 mi NNW 12.7 mph - N/A   Overcast
10:43 PM 33.8 °F 27.0 °F 24.8 °F 70% 30.16 in 10.0 mi NNW 8.1 mph - N/A   Overcast
10:53 PM 33.1 °F 24.9 °F 25.0 °F 72% 30.17 in 10.0 mi NW 10.4 mph - 0.00 in Snow Light Snow
11:53 PM 32.0 °F 23.6 °F 25.0 °F 75% 30.17 in 8.0 mi NW 10.4 mph - 0.00 in Snow Light Snow